Weather History for Payson, AZ

Change the Weather History Date:

Monday, May 5, 2014

  Actual Average Record
Temperature  
Mean Temperature 64 °F -  
Max Temperature 77 °F 75 °F 77 °F (2014)
Min Temperature 51 °F 40 °F 46 °F (2012)
Degree Days  
Heating Degree Days 1    
Growing Degree Days 14 (Base 50)    
Moisture  
Dew Point 16 °F    
Average Humidity 15    
Maximum Humidity 23    
Minimum Humidity 9    
Precipitation  
Precipitation 0.00 in - - ()
Sea Level Pressure  
Sea Level Pressure 30.08 in    
Wind  
Wind Speed 6 mph (SSW)    
Max Wind Speed 17 mph    
Max Gust Speed 29 mph    
Visibility 10 miles    
Events      
Averages and records for this station are not official NWS values.
T = Trace of Precipitation, MM = Missing Value Source: NWS Daily Summary

Daily Weather History Graph

Daily Weather History Graph

Search for Another Location

Airport:

Trip Planner

Search our weather history database for the weather conditions in past years. The results will help you decide how hot, cold, wet, or windy it might be!

Date:

Astronomy

May. 05, 2014 Rise Set
Actual Time 5:31 AM MST 7:12 PM MST
Civil Twilight 5:04 AM MST 7:39 PM MST
Nautical Twilight 4:32 AM MST 8:12 PM MST
Astronomical Twilight 3:57 AM MST 8:47 PM MST
Moon 10:53 AM MST (5/5) No Moon Set
Length of Visible Light 14h 35m
Length of Day
13h 41m
Waxing Crescent, 37% of the Moon is Illuminated
May 5
Waxing Crescent
May 6
First Quarter
May 14
Full
May 21
Last Quarter
May 28
New

Hourly Weather History & Observations

Time (MST) Temp. Dew Point Humidity Pressure Visibility Wind Dir Wind Speed Gust Speed Precip Events Conditions
12:15 AM 64.4 °F 12.2 °F 13% 30.15 in 10.0 mi West 5.8 mph - N/A   Clear
12:35 AM 60.8 °F 12.2 °F 15% 30.15 in 10.0 mi ENE 4.6 mph - N/A   Clear
12:55 AM 62.6 °F 12.2 °F 14% 30.15 in 10.0 mi Calm Calm - N/A   Clear
1:15 AM 62.6 °F 12.2 °F 14% 30.15 in 10.0 mi Variable 3.5 mph - N/A   Clear
1:35 AM 62.6 °F 12.2 °F 14% 30.14 in 10.0 mi South 4.6 mph - N/A   Clear
1:55 AM 62.6 °F 12.2 °F 14% 30.14 in 10.0 mi Variable 5.8 mph - N/A   Clear
2:15 AM 62.6 °F 12.2 °F 14% 30.13 in 10.0 mi South 4.6 mph - N/A   Clear
2:35 AM 60.8 °F 12.2 °F 15% 30.14 in 10.0 mi Calm Calm - N/A   Clear
2:55 AM 62.6 °F 12.2 °F 14% 30.13 in 10.0 mi Variable 4.6 mph - N/A   Clear
3:15 AM 60.8 °F 12.2 °F 15% 30.13 in 10.0 mi Variable 3.5 mph - N/A   Clear
3:35 AM 53.6 °F 14.0 °F 21% 30.13 in 10.0 mi Calm Calm - N/A   Clear
3:55 AM 55.4 °F 14.0 °F 20% 30.13 in 10.0 mi Calm Calm - N/A   Clear
4:15 AM 53.6 °F 14.0 °F 21% 30.12 in 10.0 mi Calm Calm - N/A   Clear
4:35 AM 51.8 °F 14.0 °F 22% 30.12 in 10.0 mi Calm Calm - N/A   Clear
4:55 AM 51.8 °F 14.0 °F 22% 30.12 in 10.0 mi Calm Calm - N/A   Clear
5:15 AM 51.8 °F 14.0 °F 22% 30.12 in 10.0 mi Calm Calm - N/A   Clear
5:35 AM 53.6 °F 14.0 °F 21% 30.12 in 10.0 mi Calm Calm - N/A   Clear
5:55 AM 55.4 °F 14.0 °F 20% 30.13 in 10.0 mi Calm Calm - N/A   Clear
6:15 AM 51.8 °F 14.0 °F 22% 30.13 in 10.0 mi Calm Calm - N/A   Clear
6:35 AM 53.6 °F 15.8 °F 22% 30.13 in 10.0 mi Calm Calm - N/A   Clear
6:55 AM 53.6 °F 15.8 °F 22% 30.13 in 10.0 mi Calm Calm - N/A   Clear
7:15 AM 55.4 °F 17.6 °F 23% 30.13 in 10.0 mi Calm Calm - N/A   Clear
7:35 AM 60.8 °F 21.2 °F 22% 30.14 in 10.0 mi Calm Calm - N/A   Clear
7:55 AM 66.2 °F 19.4 °F 17% 30.14 in 10.0 mi Calm Calm - N/A   Clear
8:15 AM 68.0 °F 15.8 °F 13% 30.14 in 10.0 mi South 4.6 mph - N/A   Clear
8:35 AM 69.8 °F 14.0 °F 12% 30.14 in 10.0 mi South 8.1 mph 15.0 mph N/A   Clear
8:55 AM 69.8 °F 23.0 °F 17% 30.14 in 10.0 mi South 8.1 mph 17.3 mph N/A   Clear
9:15 AM 69.8 °F 23.0 °F 17% 30.14 in 10.0 mi SSW 9.2 mph 18.4 mph N/A   Clear
9:35 AM 71.6 °F 21.2 °F 15% 30.13 in 10.0 mi South 10.4 mph 17.3 mph N/A   Clear
9:55 AM 71.6 °F 21.2 °F 15% 30.13 in 10.0 mi South 8.1 mph 17.3 mph N/A   Clear
10:15 AM 71.6 °F 21.2 °F 15% 30.13 in 10.0 mi South 8.1 mph 18.4 mph N/A   Clear
10:35 AM 71.6 °F 19.4 °F 14% 30.13 in 10.0 mi Variable 5.8 mph 19.6 mph N/A   Clear
11:15 AM 73.4 °F 19.4 °F 13% 30.12 in 10.0 mi SSW 10.4 mph 18.4 mph N/A   Clear
11:35 AM 73.4 °F 19.4 °F 13% 30.12 in 10.0 mi SSW 15.0 mph 24.2 mph N/A   Clear
11:55 AM 75.2 °F 21.2 °F 13% 30.11 in 10.0 mi SSW 15.0 mph - N/A   Clear
12:15 PM 75.2 °F 19.4 °F 12% 30.10 in 10.0 mi South 9.2 mph 25.3 mph N/A   Clear
12:35 PM 75.2 °F 14.0 °F 10% 30.09 in 10.0 mi SSW 17.3 mph 25.3 mph N/A   Clear
12:55 PM 77.0 °F 12.2 °F 9% 30.09 in 10.0 mi SW 10.4 mph 24.2 mph N/A   Clear
1:15 PM 77.0 °F 14.0 °F 9% 30.09 in 9.0 mi SW 10.4 mph 21.9 mph N/A   Clear
1:55 PM 77.0 °F 14.0 °F 9% 30.07 in 10.0 mi SSW 16.1 mph 26.5 mph N/A   Clear
2:15 PM 77.0 °F 15.8 °F 10% 30.07 in 10.0 mi South 11.5 mph 21.9 mph N/A   Clear
2:35 PM 77.0 °F 19.4 °F 12% 30.06 in 10.0 mi SSW 15.0 mph 24.2 mph N/A   Clear
2:55 PM 75.2 °F 19.4 °F 12% 30.05 in 10.0 mi SSW 15.0 mph 28.8 mph N/A   Clear
3:15 PM 77.0 °F 19.4 °F 12% 30.04 in 10.0 mi SSW 16.1 mph 25.3 mph N/A   Clear
3:35 PM 75.2 °F 15.8 °F 11% 30.03 in 10.0 mi SW 15.0 mph 28.8 mph N/A   Clear
3:55 PM 77.0 °F 15.8 °F 10% 30.03 in 10.0 mi SW 12.7 mph 23.0 mph N/A   Clear
4:15 PM 77.0 °F 15.8 °F 10% 30.02 in 10.0 mi WSW 13.8 mph 21.9 mph N/A   Clear
4:35 PM 75.2 °F 15.8 °F 11% 30.02 in 10.0 mi WSW 9.2 mph 19.6 mph N/A   Clear
4:55 PM 75.2 °F 17.6 °F 11% 30.02 in 10.0 mi SW 13.8 mph 24.2 mph N/A   Clear
5:15 PM 73.4 °F 17.6 °F 12% 30.01 in 10.0 mi WSW 16.1 mph - N/A   Clear
5:35 PM 73.4 °F 17.6 °F 12% 30.00 in 10.0 mi SW 16.1 mph 24.2 mph N/A   Clear
5:55 PM 73.4 °F 17.6 °F 12% 30.00 in 10.0 mi SW 9.2 mph 20.7 mph N/A   Clear
6:15 PM 71.6 °F 17.6 °F 13% 30.00 in 10.0 mi SW 13.8 mph 23.0 mph N/A   Clear
6:35 PM 71.6 °F 17.6 °F 13% 30.00 in 10.0 mi SSW 13.8 mph - N/A   Clear
6:55 PM 69.8 °F 17.6 °F 14% 30.00 in 10.0 mi SW 9.2 mph - N/A   Clear
7:15 PM 69.8 °F 17.6 °F 14% 30.00 in 10.0 mi SW 6.9 mph 13.8 mph N/A   Clear
7:35 PM 69.8 °F 17.6 °F 14% 30.00 in 10.0 mi WSW 8.1 mph - N/A   Clear
7:55 PM 68.0 °F 17.6 °F 15% 29.99 in 10.0 mi WSW 8.1 mph 17.3 mph N/A   Clear
8:15 PM 68.0 °F 15.8 °F 13% 30.00 in 10.0 mi SW 10.4 mph - N/A   Clear
8:35 PM 68.0 °F 15.8 °F 13% 30.00 in 10.0 mi SSW 6.9 mph - N/A   Clear
8:55 PM 66.2 °F 15.8 °F 14% 30.00 in 10.0 mi SW 8.1 mph 16.1 mph N/A   Clear
9:15 PM 66.2 °F 15.8 °F 14% 30.00 in 10.0 mi SW 10.4 mph 16.1 mph N/A   Clear
9:35 PM 66.2 °F 14.0 °F 13% 30.01 in 10.0 mi SSW 6.9 mph - N/A   Clear
9:55 PM 64.4 °F 14.0 °F 14% 30.00 in 10.0 mi Calm Calm - N/A   Clear
10:15 PM 64.4 °F 14.0 °F 14% 30.00 in 10.0 mi Variable 4.6 mph - N/A   Clear
10:35 PM 62.6 °F 14.0 °F 15% 29.99 in 10.0 mi Variable 3.5 mph - N/A   Clear
10:55 PM 60.8 °F 14.0 °F 16% 29.98 in 10.0 mi Variable 3.5 mph - N/A   Clear
11:15 PM 60.8 °F 14.0 °F 16% 29.98 in 10.0 mi Variable 5.8 mph - N/A   Clear
11:35 PM 60.8 °F 14.0 °F 16% 29.98 in 10.0 mi Variable 4.6 mph - N/A   Clear
11:55 PM 59.0 °F 14.0 °F 17% 29.97 in 10.0 mi Calm Calm - N/A   Clear